[[{"header":{"parameterUnit":"m.s-1","parameterCategory":1,"la1":30.2991,"la2":30.254,"lo1":-89.0895,"lo2":-89.0444,"dy":0.0017,"dx":0.0017,"nx":28,"ny":28,"refTime":"2025-08-29T21:00:00:Z","depth":0,"parameterNumber":2,"parameterNumberName":"U-component_of_WINDS"},"data":[0,0,0,0,0,0,0,0,0,0,0,0,0,0,0,0,0,0,0,0,0,0,0,0,0,0,0,0,0,0,0,0,0,0,0,0,0,0,0,0,0,0,0,0,0,0,0,0,0,0,0,0,0,0,0,0,0,0,0.8776,0.8775,0,0.8721,0.872,0.8719,0.8705,0.8706,0.8706,0.8706,0.8649,0.8647,0.8645,0,0,0,0,0,0,0,0,0,0,0,0,0,0.8869,0.8867,0.8776,0.8775,0.8774,0.8721,0.872,0.8719,0.8705,0.8706,0.8706,0.8707,0.865,0.8647,0.8645,0,0,0,0,0,0,0,0,0,0,0,0,0,0.8823,0.8867,0.8776,0.8761,0.8759,0.8721,0.872,0.8719,0.8705,0.8706,0.8706,0.8707,0.865,0.8648,0.8645,0.8617,0,0,0.8636,0.8635,0,0,0,0,0,0,0,0,0.8825,0.8819,0.8764,0.8762,0.876,0.872,0.8732,0.8685,0.8705,0.8726,0.8706,0.8707,0.8672,0.8668,0.8656,0.8615,0.8612,0.8636,0.8634,0.8633,0.8632,0,0,0,0,0,0,0,0.8828,0.8821,0.8754,0.8763,0.8761,0.8757,0.8751,0.8723,0.8697,0.8724,0.8723,0.8716,0.8671,0.8659,0.8655,0.8611,0.8636,0.8634,0.8632,0.8631,0.8545,0.8545,0,0,0,0,0,0,0.8834,0.8824,0.8756,0.8752,0.8794,0.8755,0.8748,0.8733,0.8697,0.8692,0.8716,0.8716,0.8663,0.8658,0.8653,0.8618,0.8633,0.8631,0.8629,0.8546,0.8545,0.8544,0,0,0,0,0,0,0.8836,0.8828,0.8758,0.8788,0.8779,0.8753,0.8735,0.8731,0.8719,0.8691,0.8686,0.8708,0.8664,0.8657,0.8626,0.8616,0.8629,0.8627,0.8547,0.8546,0.8545,0.8549,0,0,0,0,0,0,0.8839,0.8829,0.8818,0.8788,0.8777,0.8733,0.8735,0.873,0.8714,0.8714,0.8682,0.8678,0.8663,0.8631,0.8624,0.8613,0.8625,0.8547,0.8546,0.8545,0.855,0.8549,0.8548,0,0,0,0,0,0.8842,0.8821,0.8818,0.8809,0.8763,0.8732,0.8726,0.871,0.8713,0.8702,0.8685,0.8679,0.8619,0.8628,0.862,0.8608,0.8548,0.8547,0.8545,0.8551,0.8549,0.8548,0,0,0,0,0,0,0.885,0.8817,0.8813,0.8781,0.876,0.873,0.8715,0.8709,0.8686,0.8686,0.8667,0.866,0.8632,0.8617,0.8627,0.858,0.8583,0.858,0.859,0.8588,0.8587,0.8591,0.8622,0,0,0,0,0,0.8849,0.8826,0.8798,0.8773,0.8763,0.8741,0.8727,0.8717,0.8693,0.8684,0.8664,0.8642,0.8618,0.8603,0.8579,0.8548,0.8542,0.8536,0.8535,0.8534,0.8532,0.8515,0.8512,0.854,0.854,0.854,0,0,0.8844,0.8823,0.881,0.8774,0.8756,0.8734,0.8733,0.8709,0.8692,0.868,0.8651,0.8636,0.8609,0.8579,0.8565,0.8566,0.8523,0.8533,0.8532,0.853,0.8513,0.8511,0.8508,0.8539,0.8539,0.8539,0,0,0.8825,0.8807,0.8784,0.8767,0.874,0.8726,0.8721,0.8692,0.8682,0.8652,0.8643,0.8623,0.8582,0.8564,0.8549,0.8525,0.8519,0.8518,0.8512,0.8496,0.8494,0.8491,0.8483,0.848,0.8516,0.8516,0.8516,0,0.8823,0.8789,0.8773,0.875,0.8735,0.8724,0.8701,0.8685,0.8652,0.8641,0.8643,0.8593,0.8574,0.854,0.8534,0.8523,0.8516,0.8521,0.8495,0.8493,0.8491,0.8483,0.8479,0.8516,0.8516,0.8516,0.8516,0,0.8788,0.8764,0.8749,0.8718,0.8701,0.8678,0.866,0.8644,0.8636,0.8622,0.8593,0.857,0.8543,0.8534,0.8525,0.8499,0.85,0.8499,0.8502,0.8489,0.848,0.8477,0.8516,0.8516,0.8516,0.8516,0,0,0.8771,0.8733,0.8727,0.8714,0.8684,0.8666,0.8643,0.8616,0.8603,0.8581,0.8562,0.8528,0.8527,0.8511,0.85,0.8486,0.8469,0.8487,0.8486,0.8484,0.8439,0.844,0.8436,0.8465,0.8465,0.8464,0.8441,0,0.8748,0.8706,0.8692,0.8658,0.8636,0.8626,0.8606,0.8586,0.8573,0.8553,0.8538,0.8514,0.8515,0.8505,0.8491,0.8474,0.846,0.8476,0.8447,0.8446,0.8453,0.8432,0.8433,0.8412,0.8438,0.8437,0.8437,0,0.8715,0.8693,0.8657,0.8631,0.8621,0.8603,0.8578,0.8559,0.8537,0.8528,0.8511,0.8502,0.8477,0.8483,0.845,0.8461,0.8449,0.8439,0.8438,0.8434,0.844,0.8427,0.8405,0.8402,0.8432,0.8432,0.8433,0,0.8706,0.8668,0.8641,0.863,0.8599,0.8587,0.8573,0.8551,0.8537,0.8515,0.8505,0.8481,0.8468,0.8449,0.8434,0.8439,0.8402,0.8406,0.8394,0.8395,0.8386,0.8387,0.8361,0.8379,0.8379,0.8379,0.8379,0,0.8681,0.8659,0.8637,0.862,0.8596,0.8581,0.8557,0.8543,0.8524,0.8504,0.8495,0.8477,0.8458,0.8438,0.8427,0.8401,0.8395,0.8388,0.8385,0.8388,0.8389,0.8379,0.838,0.8378,0.8378,0.8379,0.8379,0,0.8667,0.8651,0.8621,0.8595,0.8588,0.8571,0.8549,0.8533,0.852,0.8496,0.8489,0.8468,0.8444,0.8428,0.8397,0.8389,0.8362,0.8359,0.8369,0.8368,0.8357,0.8358,0.8323,0.8318,0.834,0.834,0.834,0,0.8652,0.8635,0.8608,0.8594,0.8581,0.856,0.8545,0.853,0.8515,0.8489,0.8476,0.8452,0.8431,0.8394,0.8376,0.8352,0.8349,0.8338,0.8345,0.835,0.8349,0.835,0.8348,0.8337,0.8337,0.8337,0.8337,0,0.8628,0.8621,0.86,0.8577,0.8559,0.854,0.8521,0.8511,0.8492,0.8476,0.8452,0.8436,0.8405,0.8381,0.8357,0.8343,0.8337,0.8335,0.8331,0.8334,0.8341,0.8337,0.8366,0.8335,0.8336,0.8336,0.8336,0.8336,0.8612,0.8597,0.8576,0.8553,0.8537,0.852,0.8504,0.8489,0.8468,0.8442,0.8435,0.841,0.8389,0.8355,0.8341,0.8321,0.8322,0.8316,0.8315,0.8313,0.8314,0.8345,0.8317,0.8317,0.8317,0.8317,0.8317,0,0.8587,0.8573,0.8553,0.8526,0.8509,0.8506,0.8484,0.847,0.8448,0.8429,0.841,0.8382,0.8359,0.834,0.8317,0.8305,0.8301,0.8299,0.83,0.8297,0.8314,0.832,0.8302,0.8302,0.8302,0.8302,0.8302,0.8302,0.8572,0.8546,0.8537,0.8504,0.849,0.8466,0.8454,0.8438,0.8423,0.8393,0.8374,0.8362,0.8343,0.8319,0.8298,0.8293,0.8284,0.8283,0.8277,0.8294,0.8295,0.8297,0.8302,0.8281,0.8281,0.8261,0.8261,0.8261]},{"header":{"parameterUnit":"m.s-1","parameterCategory":1,"la1":30.2991,"la2":30.254,"lo1":-89.0895,"lo2":-89.0444,"dy":0.0017,"dx":0.0017,"nx":28,"ny":28,"refTime":"2025-08-29T21:00:00:Z","depth":0,"parameterNumber":3,"parameterNumberName":"V-component_of_WINDS"},"data":[0,0,0,0,0,0,0,0,0,0,0,0,0,0,0,0,0,0,0,0,0,0,0,0,0,0,0,0,0,0,0,0,0,0,0,0,0,0,0,0,0,0,0,0,0,0,0,0,0,0,0,0,0,0,0,0,0,0,-2.1246,-2.1247,0,-2.1318,-2.1319,-2.1319,-2.1329,-2.1328,-2.1327,-2.1326,-2.14,-2.1403,-2.1405,0,0,0,0,0,0,0,0,0,0,0,0,0,-2.1118,-2.112,-2.1246,-2.1247,-2.1248,-2.1318,-2.1319,-2.132,-2.1329,-2.1328,-2.1327,-2.1326,-2.1399,-2.1402,-2.1405,0,0,0,0,0,0,0,0,0,0,0,0,0,-2.118,-2.1121,-2.1246,-2.1261,-2.1263,-2.1317,-2.1319,-2.132,-2.1329,-2.1328,-2.1327,-2.1326,-2.1398,-2.1402,-2.1406,-2.1451,0,0,-2.1418,-2.142,0,0,0,0,0,0,0,0,-2.1176,-2.1185,-2.1258,-2.126,-2.1262,-2.1313,-2.13,-2.1364,-2.1329,-2.1304,-2.1326,-2.1325,-2.1372,-2.1378,-2.1394,-2.1454,-2.1457,-2.1418,-2.1421,-2.1422,-2.1423,0,0,0,0,0,0,0,-2.1172,-2.1182,-2.1274,-2.1259,-2.1261,-2.1264,-2.1272,-2.1312,-2.1343,-2.1306,-2.1307,-2.1315,-2.1373,-2.139,-2.1396,-2.1458,-2.1418,-2.1422,-2.1424,-2.1425,-2.156,-2.1562,0,0,0,0,0,0,-2.1165,-2.1178,-2.1272,-2.1277,-2.1216,-2.1267,-2.1276,-2.1298,-2.1342,-2.1348,-2.1316,-2.1315,-2.1384,-2.1391,-2.1398,-2.1454,-2.1422,-2.1426,-2.1428,-2.1559,-2.1561,-2.1562,0,0,0,0,0,0,-2.1162,-2.1173,-2.1269,-2.1228,-2.124,-2.1271,-2.1295,-2.13,-2.1317,-2.135,-2.1355,-2.1327,-2.1383,-2.1393,-2.1438,-2.1457,-2.1428,-2.1431,-2.1558,-2.156,-2.1561,-2.1567,0,0,0,0,0,0,-2.1158,-2.1172,-2.1189,-2.1228,-2.1242,-2.1307,-2.1296,-2.1302,-2.1323,-2.1323,-2.1362,-2.1368,-2.1383,-2.1432,-2.1442,-2.1462,-2.1434,-2.1556,-2.1558,-2.1561,-2.1565,-2.1568,-2.1571,0,0,0,0,0,-2.1154,-2.1188,-2.119,-2.1201,-2.1264,-2.1308,-2.1317,-2.1334,-2.1325,-2.1343,-2.1364,-2.1367,-2.1453,-2.1436,-2.1448,-2.1469,-2.1555,-2.1558,-2.1561,-2.1563,-2.1568,-2.1571,0,0,0,0,0,0,-2.1151,-2.1193,-2.1196,-2.1243,-2.1272,-2.131,-2.1333,-2.1337,-2.1369,-2.1368,-2.1388,-2.1396,-2.1441,-2.146,-2.144,-2.1515,-2.1503,-2.1508,-2.1502,-2.1506,-2.1509,-2.1504,-2.1437,0,0,0,0,0,-2.1155,-2.1188,-2.1223,-2.1261,-2.1276,-2.1302,-2.1322,-2.1332,-2.1363,-2.1375,-2.14,-2.143,-2.1464,-2.1486,-2.1519,-2.1567,-2.1577,-2.1588,-2.1591,-2.1594,-2.1598,-2.1626,-2.1632,-2.1571,-2.1571,-2.1571,0,0,-2.1166,-2.1193,-2.1212,-2.1262,-2.1285,-2.1319,-2.1312,-2.1347,-2.1373,-2.1381,-2.1425,-2.1444,-2.1479,-2.1526,-2.1548,-2.1543,-2.1617,-2.1597,-2.1599,-2.1602,-2.163,-2.1635,-2.164,-2.1573,-2.1573,-2.1572,0,0,-2.1202,-2.1225,-2.126,-2.1284,-2.132,-2.1337,-2.1345,-2.1383,-2.1396,-2.1441,-2.1448,-2.1478,-2.1536,-2.1561,-2.1581,-2.1627,-2.1631,-2.1637,-2.1655,-2.1682,-2.1686,-2.1691,-2.1708,-2.1714,-2.1641,-2.1641,-2.1641,0,-2.121,-2.126,-2.1277,-2.1313,-2.1335,-2.1344,-2.138,-2.1402,-2.1447,-2.1462,-2.1456,-2.1529,-2.1553,-2.1607,-2.1618,-2.1634,-2.1645,-2.1633,-2.1684,-2.1689,-2.1693,-2.171,-2.1716,-2.1642,-2.1642,-2.1642,-2.1642,0,-2.1269,-2.1304,-2.1328,-2.1372,-2.1396,-2.1432,-2.1455,-2.1477,-2.1486,-2.1504,-2.155,-2.1579,-2.1619,-2.1632,-2.1641,-2.1687,-2.1683,-2.168,-2.1668,-2.1699,-2.1715,-2.1722,-2.1643,-2.1643,-2.1642,-2.1642,0,0,-2.1305,-2.1358,-2.1366,-2.1387,-2.1427,-2.1455,-2.1491,-2.153,-2.1549,-2.158,-2.1611,-2.1661,-2.1659,-2.1681,-2.1693,-2.1716,-2.1752,-2.1711,-2.1712,-2.1718,-2.1806,-2.1809,-2.1816,-2.1755,-2.1756,-2.1757,-2.1804,0,-2.1346,-2.1411,-2.1428,-2.1483,-2.1516,-2.1525,-2.1557,-2.1586,-2.1603,-2.1634,-2.1654,-2.1689,-2.1683,-2.1697,-2.1721,-2.1743,-2.177,-2.174,-2.1785,-2.1786,-2.1776,-2.1824,-2.1827,-2.1869,-2.181,-2.1811,-2.1812,0,-2.1403,-2.1435,-2.1494,-2.1531,-2.1545,-2.1573,-2.1611,-2.164,-2.1673,-2.1684,-2.171,-2.172,-2.1758,-2.1744,-2.1798,-2.1777,-2.1796,-2.181,-2.1812,-2.1818,-2.1801,-2.1831,-2.1883,-2.189,-2.1822,-2.1821,-2.182,0,-2.1424,-2.1482,-2.1525,-2.1542,-2.1586,-2.1606,-2.1625,-2.1657,-2.1679,-2.1712,-2.1727,-2.1764,-2.1784,-2.1812,-2.1832,-2.1819,-2.1884,-2.1872,-2.1896,-2.1895,-2.1909,-2.1908,-2.1965,-2.1921,-2.192,-2.192,-2.192,0,-2.1469,-2.1505,-2.1536,-2.1562,-2.1602,-2.1621,-2.1661,-2.1681,-2.1709,-2.174,-2.175,-2.1779,-2.1802,-2.1834,-2.1849,-2.1892,-2.1901,-2.1912,-2.1916,-2.1911,-2.191,-2.1925,-2.1923,-2.1922,-2.1922,-2.1921,-2.1921,0,-2.15,-2.1522,-2.1569,-2.1607,-2.1618,-2.1646,-2.1679,-2.1705,-2.1723,-2.1762,-2.1772,-2.1801,-2.1839,-2.1861,-2.1909,-2.192,-2.1968,-2.197,-2.1957,-2.1958,-2.1981,-2.1979,-2.205,-2.2061,-2.2008,-2.2009,-2.2009,0,-2.1527,-2.1555,-2.1596,-2.1618,-2.1637,-2.1671,-2.1694,-2.1714,-2.1738,-2.1778,-2.18,-2.1839,-2.1871,-2.1932,-2.1957,-2.1994,-2.1998,-2.202,-2.2003,-2.1998,-2.1999,-2.1997,-2.2001,-2.2023,-2.2024,-2.2024,-2.2024,0,-2.1574,-2.1584,-2.1617,-2.1654,-2.1681,-2.1711,-2.1741,-2.1758,-2.1783,-2.1809,-2.1849,-2.1874,-2.1923,-2.1962,-2.2001,-2.2021,-2.2027,-2.2029,-2.2037,-2.2033,-2.2025,-2.203,-2.1965,-2.2028,-2.2027,-2.2027,-2.2027,-2.2027,-2.1605,-2.163,-2.1663,-2.17,-2.1724,-2.1752,-2.1779,-2.1801,-2.1834,-2.1876,-2.1885,-2.1927,-2.196,-2.2013,-2.2035,-2.2068,-2.2064,-2.2075,-2.2078,-2.208,-2.2081,-2.2019,-2.2075,-2.2075,-2.2075,-2.2075,-2.2075,0,-2.1653,-2.1674,-2.1708,-2.175,-2.1778,-2.1781,-2.1815,-2.1839,-2.1875,-2.1905,-2.1937,-2.1983,-2.202,-2.2049,-2.2088,-2.2109,-2.2113,-2.2118,-2.2117,-2.2122,-2.2082,-2.2072,-2.2115,-2.2115,-2.2115,-2.2115,-2.2115,-2.2115,-2.1681,-2.1725,-2.1738,-2.1794,-2.1816,-2.1857,-2.1875,-2.1901,-2.1926,-2.1976,-2.2008,-2.2026,-2.2056,-2.2097,-2.2132,-2.2139,-2.2153,-2.2159,-2.2167,-2.2129,-2.2125,-2.2121,-2.2111,-2.2162,-2.2162,-2.2204,-2.2205,-2.2205]}]]